Temp
71 69 66 65 63 61 59 54 59 54 56 55 56 55 53 53 53 53 55 57 56 56 57 56 55 58 59 63 61 58 57 57 53 55 56 56 56 56 59 61 63 62 59
68 66 64 60 58 59 54 57 57 56 56 56 55 53 52 52 52 52 54 56 55 52 54 55 54 57 55 57 59 60 58 57 56 54 53 54 54 55 56 56 58 62 59
64 62 56 55 53 55 57 56 56 54 55 54 52 54 52 53 53 53 53 54 54 54 54 54 55 55 54 55 56 60 58 57 55 54 51 53 51 52 52 54 55 56 59
60 56 57 56 55 55 56 57 52 53 52 52 55 54 56 55 54 54 54 55 53 52 51 52 52 52 54 54 56 56 58 56 54 54 52 50 50 51 51 50 49 53 55
56 53 51 53 52 58 58 57 57 56 56 57 57 57 58 56 54 53 52 53 49 49 50 50 51 52 53 52 55 52 54 54 53 52 50 49 48 48 48 49 48 50 51
52 52 52 55 57 56 57 57 57 57 57 57 56 57 55 57 48 49 50 49 50 48 48 48 49 52 53 50 51 51 50 50 50 52 50 48 48 48 48 47 47 47 50
50 53 54 58 55 57 59 59 58 58 59 58 58 57 57 56 47 47 50 50 49 48 48 48 49 50 49 48 49 49 50 48 49 48 50 49 48 49 48 47 48 54 56
53 56 57 59 57 59 59 57 58 58 60 60 60 59 57 57 46 45 47 53 51 50 50 50 50 50 49 48 48 47 48 48 47 48 50 51 51 50 50 51 53 57 58
55 58 58 60 60 59 58 59 59 58 59 59 60 59 57 57 45 45 50 55 55 54 54 49 52 54 45 46 49 48 47 48 50 47 47 47 46 47 50 52 58 57 54
58 60 59 60 60 59 58 60 60 59 59 61 57 59 53 57 43 45 49 57 57 52 55 54 45 48 44 45 57 55 49 45 47 48 48 48 49 49 50 55 55 50 53
60 62 60 60 61 62 57 60 59 59 59 58 58 57 57 52 54 44 45 57 53 55 56 53 52 43 43 44 46 51 47 48 47 47 47 47 48 49 51 54 57 56 53
60 61 60 59 59 62 58 59 59 58 57 57 56 54 58 55 45 45 44 45 49 56 54 52 50 42 42 43 48 43 44 46 46 46 46 45 46 48 52 52 51 51 51
60 61 62 63 62 62 59 56 59 59 58 58 55 54 55 59 57 46 44 45 47 55 55 47 45 43 43 45 43 44 47 47 46 45 44 44 46 51 52 51 50 48 47
61 61 62 61 61 61 61 59 58 58 58 56 53 53 55 56 55 57 56 50 48 49 47 50 46 46 44 45 48 48 50 48 46 47 47 48 50 50 49 49 47 46 43
59 58 59 62 59 57 57 56 58 51 50 52 53 49 46 48 47 43 45 52 52 48 50 50 48 46 45 45 46 47 48 48 49 51 49 47 47 47 46 48 46 45 43
54 58 60 59 61 55 49 53 41 43 42 40 39 43 46 41 40 40 40 40 41 43 47 44 42 43 43 42 43 44 46 47 48 49 48 47 45 46 46 46 46 44 43
57 58 58 58 58 57 54 54 49 48 42 41 40 40 39 39 39 40 40 41 41 45 44 42 42 42 42 43 43 45 45 48 50 48 46 47 48 47 46 45 44 44 43
60 49 60 58 56 54 55 51 48 46 43 46 43 41 40 40 40 40 41 45 46 45 44 43 43 43 43 43 44 45 46 47 48 48 49 50 50 46 45 44 44 43 43
62 57 61 55 59 55 55 49 48 45 43 43 43 42 43 41 41 41 42 45 45 44 45 45 45 45 45 45 45 46 46 46 48 49 50 49 46 46 43 43 43 40 41
59 50 51 59 55 54 52 48 47 46 44 43 41 41 43 45 43 43 44 45 46 45 47 47 48 48 48 48 48 48 48 48 50 50 49 47 47 47 45 45 46 45 45
61 57 50 58 54 52 48 45 45 45 43 43 43 41 34 43 43 43 44 45 46 48 50 51 51 50 50 48 51 51 51 51 50 52 50 50 50 47 48 48 50 51 55
60 57 59 55 50 48 47 46 45 45 45 44 45 46 37 47 48 47 47 47 49 51 54 56 56 53 51 50 49 51 53 51 55 56 56 53 52 52 54 53 54 54 54
61 59 57 55 51 46 47 47 46 47 47 46 46 46 49 50 52 51 51 50 52 55 55 55 57 54 55 54 56 56 57 57 56 57 56 57 58 57 58 54 58 61 64
63 59 58 56 54 53 52 51 52 47 53 50 49 50 51 54 54 53 54 55 55 52 51 54 54 54 56 58 58 61 62 65 65 64 64 64 65 63 56 61 64 67 68
64 59 57 56 57 57 56 57 57 57 58 59 58 57 57 57 59 56 55 57 56 54 57 59 57 57 57 59 60 61 43 38 59 49 66 66 66 65 66 68 69 70 70
64 63 61 60 60 60 60 61 61 61 61 61 63 63 63 61 60 61 60 58 60 65 62 58 60 63 63 61 58 40 37 37 49 39 68 72 72 71 72 71 70 70 69
MSLP
1015.88 1016.28 1016.52 1016.68 1016.53 1016.66 1016.64 1016.52 1015.80 1015.87 1015.37 1014.88 1014.31 1014.04 1013.81 1013.38 1012.99 1012.52 1011.91 1011.37 1010.97 1010.62 1010.06 1009.68 1009.18 1008.55 1008.15 1007.32 1007.39 1007.28 1007.39 1007.28 1006.88 1007.99 1008.30 1008.50 1009.22 1008.88 1009.41 1009.24 1009.39 1009.89 1010.63
1016.45 1016.76 1016.74 1016.91 1016.94 1016.78 1016.75 1016.18 1015.90 1015.70 1015.32 1014.85 1014.45 1014.25 1013.89 1013.53 1013.09 1012.67 1012.09 1011.48 1011.14 1010.88 1010.25 1009.65 1009.31 1008.85 1008.51 1008.14 1007.80 1007.40 1007.39 1007.37 1007.44 1007.76 1008.49 1008.92 1009.17 1009.54 1009.90 1009.85 1009.79 1010.22 1011.12
1017.11 1017.10 1017.47 1017.33 1017.36 1017.03 1016.32 1016.15 1015.90 1015.66 1015.26 1015.00 1014.63 1014.05 1013.80 1013.38 1012.99 1012.67 1012.34 1011.85 1011.47 1011.06 1010.63 1010.21 1009.63 1009.10 1008.67 1008.50 1008.23 1007.74 1007.77 1007.76 1007.77 1007.85 1008.31 1009.19 1009.90 1010.29 1010.41 1010.68 1010.82 1011.08 1011.56
1017.73 1017.89 1017.44 1017.44 1017.30 1016.94 1016.47 1016.02 1016.02 1015.72 1015.34 1014.90 1014.33 1013.96 1013.61 1013.23 1012.94 1012.47 1012.03 1011.66 1011.51 1011.22 1010.84 1010.42 1010.08 1009.55 1009.31 1009.03 1008.46 1008.34 1008.07 1008.08 1008.01 1007.64 1008.75 1009.41 1010.01 1010.52 1010.55 1011.07 1011.49 1011.44 1011.80
1018.29 1018.30 1018.00 1017.74 1017.45 1016.38 1016.00 1015.76 1015.49 1015.39 1015.02 1014.43 1013.83 1013.29 1013.04 1012.93 1012.98 1012.76 1012.31 1011.91 1011.87 1011.51 1011.12 1010.64 1010.48 1010.32 1010.21 1009.95 1009.25 1009.02 1008.68 1008.41 1008.35 1008.45 1008.86 1009.57 1010.13 1010.68 1011.13 1011.56 1011.87 1011.94 1012.16
1018.64 1018.25 1018.06 1017.56 1016.88 1016.35 1015.84 1015.52 1015.20 1014.74 1014.50 1014.09 1013.55 1013.15 1013.14 1013.11 1013.27 1013.06 1012.79 1012.47 1012.18 1011.88 1011.65 1011.53 1011.16 1011.05 1010.81 1010.76 1010.35 1010.08 1009.79 1009.21 1008.96 1008.79 1009.08 1009.56 1010.22 1010.86 1011.50 1011.87 1012.23 1011.94 1011.74
1018.75 1018.23 1017.70 1016.93 1016.61 1016.02 1015.49 1015.05 1014.58 1014.31 1013.94 1013.64 1013.42 1013.28 1013.16 1013.24 1013.31 1013.07 1012.96 1012.76 1012.57 1012.35 1012.15 1011.96 1011.85 1011.82 1011.57 1011.30 1011.05 1010.82 1010.35 1010.04 1009.74 1009.44 1009.23 1009.63 1010.28 1011.00 1011.62 1012.14 1012.02 1011.50 1011.45
1018.45 1017.68 1017.08 1016.49 1016.07 1015.59 1015.20 1014.96 1014.57 1014.20 1013.58 1013.27 1013.18 1013.21 1013.24 1013.48 1013.48 1013.21 1012.99 1012.55 1012.72 1012.61 1012.50 1012.35 1012.17 1012.00 1011.96 1011.79 1011.44 1011.02 1010.79 1010.58 1010.09 1009.91 1009.53 1009.92 1010.58 1011.28 1011.74 1011.98 1011.97 1011.63 1011.98
1017.79 1017.14 1016.77 1016.28 1015.66 1015.43 1015.23 1014.85 1014.59 1014.35 1013.88 1013.67 1013.40 1013.30 1013.42 1013.63 1013.69 1013.27 1012.83 1012.46 1012.24 1012.52 1012.67 1012.87 1012.36 1012.11 1012.16 1011.38 1011.03 1011.08 1010.91 1010.86 1010.59 1010.26 1009.93 1010.48 1011.18 1011.69 1012.00 1012.30 1011.88 1011.57 1011.90
1017.47 1016.93 1016.84 1016.42 1015.83 1015.64 1015.36 1014.83 1014.64 1014.39 1014.07 1013.63 1013.82 1013.82 1014.03 1013.88 1014.17 1013.70 1013.14 1012.31 1012.05 1012.44 1012.59 1012.81 1013.17 1013.02 1012.53 1011.92 1010.93 1010.93 1011.29 1011.53 1011.17 1010.91 1011.14 1011.46 1011.83 1012.41 1012.66 1012.69 1012.32 1012.09 1012.07
1017.54 1016.92 1016.87 1016.32 1015.65 1015.50 1015.64 1015.17 1014.86 1014.58 1014.32 1014.07 1014.01 1014.27 1014.32 1014.54 1014.26 1014.23 1013.62 1012.84 1012.81 1012.53 1012.66 1013.11 1013.52 1013.53 1013.15 1012.82 1012.38 1012.12 1012.29 1012.17 1012.06 1011.84 1012.10 1012.41 1012.72 1013.00 1013.09 1012.90 1012.59 1012.49 1012.76
1017.55 1017.05 1016.87 1016.54 1016.26 1015.71 1015.85 1015.48 1015.25 1015.01 1014.75 1014.47 1014.31 1014.49 1014.44 1014.79 1014.87 1014.72 1014.47 1014.07 1013.62 1013.09 1013.17 1013.53 1014.07 1014.10 1013.79 1013.56 1013.24 1013.03 1012.73 1012.84 1012.75 1012.74 1012.92 1013.32 1013.48 1013.57 1013.83 1014.02 1014.18 1014.22 1014.17
1017.57 1017.10 1016.65 1016.46 1016.35 1016.04 1015.94 1015.93 1015.40 1015.42 1015.22 1014.76 1015.04 1015.04 1014.71 1014.41 1014.68 1014.78 1014.73 1014.53 1014.24 1013.70 1013.99 1014.51 1014.54 1014.40 1014.34 1014.13 1014.00 1013.71 1013.21 1013.37 1013.41 1013.44 1013.81 1014.19 1014.38 1014.44 1014.49 1014.79 1015.07 1015.24 1015.41
1017.59 1017.30 1016.91 1016.63 1016.65 1016.54 1016.47 1016.42 1016.57 1016.52 1015.99 1015.94 1016.04 1015.81 1015.21 1014.86 1015.15 1015.02 1014.73 1014.86 1014.68 1014.55 1014.77 1014.83 1014.94 1015.04 1015.02 1014.85 1014.44 1014.35 1014.16 1014.13 1014.10 1014.20 1014.50 1014.84 1014.96 1015.03 1015.23 1015.48 1015.58 1016.10 1016.19
1018.22 1017.90 1017.33 1016.84 1016.98 1017.29 1017.76 1017.78 1017.38 1018.56 1018.34 1017.75 1017.37 1017.27 1017.23 1016.65 1016.74 1016.64 1016.23 1015.48 1015.19 1015.16 1014.92 1015.02 1015.24 1015.40 1015.39 1015.33 1015.19 1015.08 1014.96 1014.87 1014.69 1014.79 1015.09 1015.40 1015.64 1015.85 1016.06 1016.29 1016.62 1016.79 1016.76
1019.04 1018.28 1017.76 1017.59 1017.05 1017.79 1018.23 1018.31 1019.14 1019.17 1019.10 1019.00 1018.79 1018.44 1018.07 1017.89 1017.40 1017.01 1016.68 1016.34 1015.98 1015.66 1015.66 1015.75 1015.92 1015.96 1015.88 1015.87 1015.85 1015.82 1015.70 1015.59 1015.54 1015.62 1015.95 1016.23 1016.31 1016.55 1016.90 1017.17 1017.26 1017.39 1017.72
1018.89 1018.69 1018.31 1018.02 1017.86 1018.03 1018.28 1018.22 1019.02 1019.38 1019.40 1019.37 1019.25 1019.00 1018.63 1018.21 1017.76 1017.40 1017.06 1016.75 1016.38 1016.23 1016.39 1016.53 1016.50 1016.51 1016.54 1016.45 1016.46 1016.37 1016.27 1016.20 1016.28 1016.55 1016.69 1016.81 1016.96 1017.31 1017.58 1017.89 1018.11 1018.22 1018.41
1018.75 1019.18 1018.33 1018.40 1018.80 1018.88 1018.96 1019.69 1020.03 1019.98 1019.90 1019.70 1019.64 1019.41 1019.03 1018.67 1018.23 1017.75 1017.37 1017.11 1017.01 1017.11 1017.09 1017.11 1017.06 1017.09 1017.14 1017.08 1017.13 1017.10 1017.07 1017.10 1017.09 1017.18 1017.27 1017.31 1017.46 1018.00 1018.29 1018.55 1018.80 1018.94 1019.19
1018.84 1019.41 1018.72 1019.24 1019.12 1019.40 1019.83 1020.50 1020.60 1020.64 1020.61 1020.54 1020.25 1019.88 1019.55 1019.15 1018.77 1018.44 1018.10 1017.83 1017.72 1017.72 1017.73 1017.69 1017.69 1017.60 1017.63 1017.72 1017.78 1017.83 1017.81 1017.83 1017.84 1017.77 1017.81 1018.09 1018.49 1018.71 1019.01 1019.29 1019.55 1019.70 1019.77
1019.88 1019.98 1019.88 1019.47 1019.88 1020.28 1020.81 1021.20 1021.24 1021.18 1021.12 1021.01 1020.81 1020.60 1020.12 1019.47 1019.29 1019.14 1018.90 1018.64 1018.35 1018.36 1018.21 1018.04 1018.07 1018.04 1018.05 1018.14 1018.29 1018.38 1018.40 1018.37 1018.34 1018.47 1018.64 1018.86 1019.13 1019.32 1019.66 1019.94 1020.08 1020.10 1020.11
1020.08 1020.69 1020.50 1020.49 1021.16 1021.77 1022.11 1022.14 1022.04 1021.89 1021.73 1021.50 1021.23 1021.03 1020.57 1020.21 1020.05 1019.82 1019.64 1019.39 1019.14 1018.97 1018.66 1018.41 1018.37 1018.40 1018.61 1018.80 1018.81 1018.86 1018.85 1018.91 1019.14 1019.18 1019.22 1019.26 1019.49 1019.89 1020.18 1020.33 1020.28 1020.22 1019.87
1020.80 1021.18 1021.21 1021.99 1022.69 1022.87 1022.92 1022.88 1022.73 1022.55 1022.23 1021.97 1021.70 1021.14 1020.78 1020.48 1020.29 1020.19 1020.12 1020.03 1019.73 1019.47 1019.06 1018.46 1018.61 1018.96 1019.23 1019.40 1019.53 1019.36 1019.33 1019.45 1019.31 1019.18 1019.23 1019.64 1020.00 1020.18 1020.19 1020.25 1020.16 1020.01 1019.72
1021.45 1021.69 1022.09 1022.75 1023.31 1023.49 1023.50 1023.49 1023.29 1022.82 1022.51 1022.23 1021.95 1021.56 1021.00 1020.76 1020.60 1020.49 1020.44 1020.34 1020.13 1019.85 1019.81 1019.67 1019.31 1019.71 1019.88 1019.83 1019.66 1019.41 1019.46 1019.59 1019.62 1019.64 1019.66 1019.66 1019.53 1019.84 1019.84 1020.13 1019.94 1019.60 1019.03
1021.63 1022.20 1022.43 1023.00 1023.39 1023.63 1023.75 1023.56 1023.23 1022.75 1022.37 1022.45 1022.32 1021.72 1021.33 1020.96 1020.84 1020.84 1020.76 1020.66 1020.47 1020.67 1020.80 1020.60 1020.54 1020.49 1020.52 1020.21 1020.15 1019.80 1019.79 1019.53 1019.67 1019.77 1019.73 1019.68 1019.47 1019.58 1020.23 1020.06 1019.54 1018.62 1018.33
1022.15 1022.81 1023.23 1023.44 1023.36 1023.34 1023.52 1023.24 1022.91 1022.51 1022.12 1021.89 1021.75 1021.75 1021.80 1021.50 1021.27 1021.23 1021.18 1021.08 1021.08 1021.13 1021.03 1021.05 1021.22 1021.23 1021.10 1020.91 1021.00 1021.01 1021.32 1021.05 1020.62 1020.52 1020.17 1020.00 1019.76 1019.80 1019.68 1019.18 1018.72 1018.44 1018.06
1022.56 1022.61 1022.84 1023.06 1023.10 1023.07 1022.91 1022.63 1022.45 1022.29 1022.18 1022.08 1021.89 1021.76 1021.74 1021.70 1021.59 1021.53 1021.40 1021.32 1021.25 1021.02 1021.43 1021.89 1021.83 1021.68 1021.79 1022.02 1022.23 1022.25 1021.90 1021.59 1021.40 1021.30 1019.84 1019.39 1019.19 1019.22 1019.20 1019.11 1019.02 1018.92 1018.91
Wind_Speed
17 18 17 16 14 11 11 9 11 10 11 9 11 10 9 9 9 8 9 8 9 9 7 7 10 7 5 5 4 4 4 1 3 2 3 6 5 7 7 8 7 10 11
19 18 17 12 10 12 9 11 11 11 11 11 10 9 9 8 7 8 10 10 8 9 9 9 8 7 8 5 6 4 5 5 1 1 2 2 4 7 7 7 6 9 9
16 14 9 8 8 11 12 10 10 10 9 9 9 8 8 8 8 8 9 9 8 8 9 9 11 9 6 6 7 5 5 4 3 1 3 2 3 5 7 7 8 6 7
14 10 12 11 10 9 9 9 7 7 8 8 8 7 7 5 6 8 8 7 6 8 8 7 7 7 10 9 7 9 4 4 4 1 4 4 3 4 5 6 5 6 5
12 11 8 8 8 8 8 5 5 7 8 10 10 9 5 6 7 10 9 7 6 7 6 9 7 11 14 14 8 8 8 4 3 1 4 4 5 6 6 3 5 5 1
10 8 8 8 9 8 7 8 9 8 8 8 8 5 4 6 8 9 9 5 6 7 7 8 8 12 10 13 14 14 12 6 5 2 3 6 6 6 5 5 4 2 3
7 7 7 7 9 8 7 9 6 6 4 5 6 6 5 7 9 6 6 2 4 6 6 6 5 6 8 6 8 12 12 12 7 3 7 7 8 7 6 6 2 2 6
6 6 6 9 8 7 8 8 7 8 7 5 4 5 6 9 10 8 7 3 5 4 6 7 6 4 7 7 5 5 6 8 8 3 4 8 9 8 6 4 3 7 6
5 7 7 8 10 7 5 6 7 6 6 7 8 8 8 11 14 12 5 3 6 7 7 9 8 10 12 14 5 4 6 7 8 9 13 15 14 13 7 3 6 3 7
8 7 8 8 8 9 9 8 7 7 7 7 8 9 11 10 14 13 12 5 7 6 7 6 14 12 14 17 10 8 8 6 7 8 10 13 12 9 7 5 5 5 6
6 7 7 6 3 8 9 6 7 8 8 8 8 9 9 11 12 14 17 8 5 5 7 7 7 11 12 12 11 9 7 6 7 7 8 8 8 6 4 6 10 8 6
5 6 8 10 9 8 8 7 9 10 10 8 7 7 7 7 11 10 10 9 12 7 5 5 7 9 12 13 9 10 10 8 5 7 8 8 7 7 8 10 12 11 11
6 5 8 9 9 9 9 9 7 9 9 8 8 8 5 4 4 2 0 6 9 7 8 6 4 7 5 7 11 11 7 6 5 8 8 7 6 6 9 10 10 13 13
6 6 6 5 8 10 9 7 10 11 10 10 9 9 9 8 8 10 7 1 2 1 2 5 8 8 9 8 6 7 7 6 5 7 7 7 6 7 8 6 8 8 8
10 9 11 9 9 7 11 10 9 11 10 9 9 7 9 9 9 7 7 8 7 7 4 7 7 6 5 5 7 7 6 6 6 8 8 7 7 7 7 8 7 7 10
9 8 7 9 5 7 3 5 10 8 10 10 10 11 4 7 9 9 8 8 9 8 6 6 6 5 6 6 6 6 6 8 7 8 7 7 6 7 8 7 7 8 9
4 7 6 6 9 8 6 6 7 4 8 8 11 10 10 7 10 8 8 7 10 7 7 6 5 6 6 6 6 6 6 6 9 8 6 6 7 8 8 7 6 7 8
5 2 4 7 8 6 10 9 7 8 7 8 9 10 12 11 12 13 11 6 8 9 6 6 6 6 6 6 6 7 7 7 7 7 6 6 8 8 7 6 6 7 7
11 8 7 8 8 8 10 8 7 7 6 7 7 9 11 10 12 14 12 7 6 6 6 7 6 5 6 6 7 7 7 6 6 6 7 8 7 7 7 7 8 8 8
9 9 11 8 9 10 10 8 7 8 8 7 7 8 7 8 9 8 8 7 7 6 4 5 6 6 6 7 7 7 7 7 7 7 8 7 6 7 7 6 6 6 4
7 8 7 12 11 11 9 7 7 8 8 7 8 8 7 8 7 7 7 7 7 7 7 7 6 5 5 7 8 8 8 8 8 9 5 3 7 7 6 6 6 4 5
9 9 11 12 9 8 7 8 8 8 8 9 8 8 6 8 8 7 8 7 6 7 5 5 8 8 6 6 6 7 9 7 7 6 8 8 8 7 6 6 5 4 3
11 11 11 11 9 8 8 8 7 6 7 7 6 5 8 9 10 9 8 5 6 8 9 9 9 8 8 6 3 4 8 9 5 6 6 7 7 7 5 6 5 5 2
11 9 11 11 9 9 9 8 5 5 8 7 6 6 7 8 8 9 9 8 9 8 8 8 8 9 9 8 5 5 7 6 7 9 10 8 6 10 7 7 3 4 7
11 11 10 8 6 8 8 7 6 7 6 7 6 6 8 8 9 7 5 7 7 6 10 10 9 12 12 16 14 13 11 10 8 6 8 8 8 13 9 6 5 5 5
6 8 8 8 7 7 7 7 8 8 8 9 9 9 9 8 7 8 6 5 7 12 13 9 12 19 18 14 12 8 8 6 1 5 3 6 6 6 6 8 10 8 10
Wind_Direction
334 336 334 324 313 339 329 308 316 315 322 324 321 339 339 340 341 329 310 315 318 316 311 316 318 314 321 322 312 306 302 273 46 101 65 113 123 122 108 119 99 91 75
332 331 320 341 344 340 320 316 330 325 319 333 342 335 328 321 313 301 324 319 323 324 326 332 339 344 347 332 310 320 312 331 208 141 83 104 93 103 89 74 66 78 84
332 321 359 359 343 312 329 324 335 332 334 337 322 318 322 322 335 333 323 316 320 326 330 329 331 331 337 326 324 316 328 350 337 114 107 90 83 120 103 91 89 110 101
334 342 331 338 328 327 313 330 325 319 313 309 303 300 302 311 313 311 300 312 338 338 326 322 323 23 20 355 340 355 295 318 342 164 117 114 114 115 102 109 95 61 76
328 344 321 326 305 303 326 327 326 304 299 296 304 302 306 352 4 344 347 25 9 347 13 20 51 50 41 33 8 354 3 348 319 89 115 120 130 137 136 109 96 104 30
314 329 324 306 303 318 319 322 306 300 309 317 340 21 57 34 4 8 15 16 11 22 36 30 29 29 33 33 31 37 27 2 353 152 141 146 139 124 119 112 129 144 106
322 306 307 300 307 311 307 300 312 328 342 1 16 18 20 46 6 354 1 28 41 45 42 35 41 33 23 12 27 26 32 32 34 299 153 148 143 137 130 129 198 236 96
290 288 313 320 319 332 347 354 350 342 350 0 0 38 41 49 1 351 335 226 112 59 39 28 41 21 20 343 340 39 20 27 15 17 83 116 119 121 125 138 213 110 109
312 319 350 340 348 20 7 356 3 345 3 359 15 34 47 48 9 358 346 67 97 92 63 37 11 41 356 349 177 83 43 21 26 71 90 101 103 102 102 130 191 207 119
345 353 4 342 8 356 346 7 8 4 9 1 58 50 48 40 29 5 4 359 62 90 92 78 51 22 8 5 4 44 71 33 16 62 82 83 87 82 65 2 18 322 121
322 11 11 326 5 18 18 0 18 18 16 31 58 59 52 34 41 21 8 22 42 51 51 45 34 15 22 27 20 37 23 69 32 66 75 73 74 69 49 33 38 38 73
21 20 9 15 11 10 10 13 26 18 20 23 20 82 62 32 23 36 15 13 356 46 50 77 66 30 45 33 35 11 16 81 46 72 77 70 72 70 68 65 59 63 57
42 31 22 28 18 357 40 12 38 26 13 35 27 36 12 31 59 255 298 3 29 19 45 53 35 68 37 48 38 24 34 75 56 76 75 74 66 86 93 89 82 71 63
9 15 7 353 27 24 48 35 34 18 5 22 24 3 353 30 25 8 12 165 33 181 87 74 78 74 59 30 54 50 55 61 65 77 84 77 76 76 77 81 84 79 76
356 13 340 341 75 59 58 22 51 49 28 17 12 39 4 356 1 350 4 7 11 28 44 57 53 50 50 53 56 56 60 66 77 83 82 76 78 73 69 71 74 81 80
5 357 358 1 19 78 75 94 59 84 60 37 35 38 18 13 359 18 22 21 12 31 57 53 52 48 53 54 56 61 56 65 71 78 78 81 78 82 82 79 77 79 86
4 12 34 0 30 33 44 47 63 114 83 60 29 26 17 6 14 13 5 14 31 70 68 61 55 54 55 56 58 62 64 63 76 77 81 81 88 85 83 79 77 76 70
33 244 33 57 54 52 50 49 36 28 18 18 37 16 13 13 25 26 23 36 59 60 64 59 60 56 57 58 59 65 67 70 69 73 77 79 76 87 82 75 70 77 82
31 46 29 52 58 62 73 48 40 35 31 30 16 11 2 14 33 30 24 42 60 71 60 64 62 56 67 68 68 65 63 66 71 73 75 71 72 78 77 72 74 74 88
70 46 38 48 53 56 55 42 30 31 36 33 24 15 5 32 39 34 34 38 50 63 75 65 60 58 60 65 68 70 69 72 72 71 71 81 87 83 85 86 92 93 82
67 82 57 55 54 52 47 37 35 40 38 33 28 23 3 46 45 43 39 37 37 50 50 52 66 78 68 62 74 78 85 76 76 89 91 90 85 89 92 101 111 108 115
66 67 62 67 59 49 45 41 43 45 43 35 31 27 23 57 59 56 59 46 48 49 58 75 68 66 72 74 68 80 83 84 94 101 90 92 106 117 130 132 130 138 165
80 80 84 89 76 61 56 49 42 30 27 16 14 8 40 54 58 59 66 67 48 49 46 45 62 54 62 84 117 64 81 90 105 119 135 153 157 152 111 89 124 125 131
95 94 83 77 80 76 70 64 54 31 42 68 65 31 41 52 63 64 63 60 66 64 65 68 63 64 71 73 91 78 49 62 89 72 80 89 88 89 102 123 124 118 86
72 77 84 100 102 81 84 70 58 62 65 71 97 98 73 52 60 65 60 69 70 61 63 70 61 62 60 69 71 66 20 14 93 116 114 104 130 145 153 146 115 88 73
96 99 102 104 99 90 81 70 67 71 71 60 56 65 79 71 60 72 72 77 76 72 76 75 70 70 70 64 53 24 359 1 207 310 288 90 85 84 84 71 66 67 56